[[{"header":{"parameterUnit":"m.s-1","parameterCategory":1,"la1":30.2991,"la2":30.254,"lo1":-89.0895,"lo2":-89.0444,"dy":0.0017,"dx":0.0017,"nx":28,"ny":28,"refTime":"2025-01-23T03:00:00:Z","depth":0,"parameterNumber":2,"parameterNumberName":"U-component_of_WINDS"},"data":[0,0,0,0,0,0,0,0,0,0,0,0,0,0,0,0,0,0,0,0,0,0,0,0,0,0,0,0,0,0,0,0,0,0,0,0,0,0,0,0,0,0,0,0,0,0,0,0,0,0,0,0,0,0,0,0,0,0,1.4031,1.4031,0,1.3972,1.3972,1.3971,1.3941,1.3941,1.3941,1.3941,1.3877,1.3876,1.3874,0,0,0,0,0,0,0,0,0,0,0,0,0,1.4115,1.4113,1.4031,1.4031,1.403,1.3973,1.3972,1.3971,1.3941,1.3941,1.3941,1.3941,1.3878,1.3876,1.3874,0,0,0,0,0,0,0,0,0,0,0,0,0,1.4069,1.4113,1.4031,1.4008,1.4006,1.3973,1.3972,1.3971,1.3941,1.3941,1.3941,1.3941,1.3878,1.3876,1.3873,1.3858,0,0,1.3866,1.3865,0,0,0,0,0,0,0,0,1.4072,1.4066,1.4012,1.401,1.4007,1.3964,1.3978,1.3933,1.3941,1.3965,1.3941,1.3941,1.3906,1.3901,1.389,1.3855,1.3852,1.3865,1.3864,1.3863,1.3862,0,0,0,0,0,0,0,1.4075,1.4069,1.4008,1.4012,1.4008,1.4,1.3993,1.3969,1.3936,1.3963,1.3961,1.3955,1.3904,1.3892,1.3888,1.3851,1.3865,1.3863,1.3862,1.3861,1.3801,1.3801,0,0,0,0,0,0,1.4083,1.4072,1.401,1.4006,1.404,1.3998,1.3991,1.3978,1.3937,1.393,1.3955,1.3954,1.3897,1.3891,1.3886,1.3865,1.3863,1.386,1.3859,1.3801,1.3801,1.3801,0,0,0,0,0,0,1.4084,1.4077,1.4012,1.4038,1.4029,1.3997,1.3982,1.3977,1.3965,1.393,1.3924,1.3949,1.3897,1.3889,1.3865,1.3862,1.3859,1.3857,1.3801,1.3801,1.3801,1.3824,0,0,0,0,0,0,1.4087,1.4078,1.4073,1.4038,1.4028,1.3994,1.3982,1.3975,1.3961,1.3959,1.3923,1.3917,1.3896,1.3869,1.3863,1.3859,1.3855,1.3801,1.3801,1.3801,1.3823,1.3824,1.3825,0,0,0,0,0,1.409,1.4081,1.4073,1.4065,1.4021,1.3994,1.3988,1.3965,1.3961,1.3955,1.3932,1.3918,1.3864,1.3867,1.386,1.3855,1.3801,1.3801,1.3801,1.3822,1.3824,1.3825,0,0,0,0,0,0,1.4114,1.4076,1.4066,1.4046,1.4024,1.3989,1.398,1.3967,1.3944,1.3943,1.3915,1.3907,1.3885,1.3868,1.3872,1.3838,1.3831,1.3829,1.385,1.3851,1.3853,1.3857,1.3853,0,0,0,0,0,1.4118,1.41,1.4067,1.4052,1.4041,1.4013,1.4,1.3985,1.396,1.395,1.3925,1.3901,1.3878,1.3864,1.3841,1.382,1.3812,1.3813,1.3815,1.3816,1.3814,1.3802,1.3802,1.38,1.38,1.38,0,0,1.4124,1.41,1.4091,1.4056,1.4037,1.4018,1.4005,1.3986,1.3971,1.3946,1.3922,1.3904,1.3874,1.3852,1.3841,1.3837,1.3813,1.3816,1.3817,1.3815,1.3802,1.3802,1.3802,1.38,1.38,1.38,0,0,1.4125,1.4106,1.4091,1.4073,1.4044,1.4025,1.4022,1.3989,1.3977,1.3953,1.3933,1.3915,1.3877,1.3857,1.3842,1.3836,1.3822,1.3829,1.3836,1.3824,1.3824,1.3824,1.3821,1.3821,1.3828,1.3828,1.3828,0,1.4135,1.4108,1.4085,1.4067,1.4052,1.403,1.4015,1.3997,1.3963,1.3952,1.3948,1.39,1.3879,1.3851,1.385,1.3839,1.3833,1.3833,1.3826,1.3826,1.3825,1.3823,1.3822,1.3829,1.3829,1.3829,1.3829,0,1.4122,1.4103,1.4094,1.4063,1.4047,1.403,1.4004,1.3991,1.3977,1.3958,1.3934,1.3908,1.3879,1.3872,1.3857,1.3842,1.384,1.3832,1.3824,1.3827,1.3824,1.3823,1.3831,1.3831,1.383,1.383,0,0,1.4136,1.4093,1.409,1.4076,1.4043,1.4027,1.4009,1.3983,1.3971,1.3948,1.3932,1.3901,1.3892,1.3875,1.3858,1.3848,1.3845,1.384,1.3839,1.3842,1.3826,1.3833,1.3832,1.3836,1.3836,1.3835,1.3828,0,1.4132,1.4101,1.408,1.4056,1.4038,1.4017,1.4001,1.3979,1.3961,1.3942,1.3922,1.39,1.3892,1.3881,1.387,1.3848,1.3841,1.3848,1.3819,1.3819,1.3827,1.383,1.3837,1.3832,1.3827,1.3827,1.3827,0,1.4124,1.4103,1.4077,1.4047,1.4038,1.4025,1.3999,1.3981,1.3955,1.3943,1.3924,1.3908,1.3887,1.3882,1.3853,1.3858,1.3845,1.3832,1.3832,1.3827,1.3822,1.3826,1.383,1.3829,1.3825,1.3825,1.3825,0,1.4136,1.4101,1.4081,1.4069,1.4033,1.4024,1.4009,1.3983,1.3968,1.3945,1.3936,1.391,1.3896,1.3876,1.3853,1.3852,1.3826,1.3819,1.3814,1.3815,1.3809,1.381,1.3811,1.3802,1.3802,1.3802,1.3802,0,1.4134,1.4119,1.4087,1.4074,1.4057,1.4033,1.4016,1.3998,1.3976,1.3959,1.3939,1.3923,1.3894,1.3874,1.3856,1.3834,1.3828,1.3817,1.3812,1.3818,1.382,1.3809,1.3808,1.3802,1.3802,1.3802,1.3802,0,1.4145,1.4122,1.4099,1.4068,1.4059,1.4048,1.402,1.4007,1.3988,1.3967,1.3961,1.3932,1.3908,1.3883,1.385,1.3838,1.3817,1.381,1.3826,1.3823,1.3819,1.382,1.3813,1.381,1.3804,1.3804,1.3805,0,1.4144,1.4133,1.41,1.4088,1.4073,1.4054,1.4039,1.4015,1.4001,1.3971,1.3961,1.3936,1.3915,1.3877,1.3853,1.3827,1.382,1.3819,1.3816,1.3823,1.3819,1.382,1.3818,1.382,1.382,1.382,1.382,0,1.4146,1.4136,1.4116,1.4093,1.4076,1.4056,1.4035,1.4027,1.3998,1.3983,1.3959,1.3943,1.391,1.3885,1.3857,1.384,1.3825,1.3822,1.3819,1.3825,1.3835,1.3829,1.3828,1.3822,1.3822,1.3822,1.3822,1.3821,1.4151,1.4139,1.4115,1.4094,1.4076,1.4057,1.4043,1.4023,1.4003,1.3976,1.3963,1.3939,1.3913,1.3874,1.3857,1.3837,1.3833,1.3829,1.3828,1.3828,1.3829,1.3839,1.3832,1.3832,1.3832,1.3832,1.3832,0,1.4151,1.4135,1.4115,1.4088,1.4071,1.406,1.4036,1.4023,1.4002,1.398,1.396,1.3932,1.3908,1.3882,1.3856,1.3845,1.3838,1.3839,1.3839,1.3835,1.3835,1.3839,1.3846,1.3846,1.3846,1.3846,1.3846,1.3846,1.4149,1.413,1.4116,1.4087,1.407,1.4047,1.4035,1.4017,1.3999,1.397,1.395,1.3934,1.3909,1.3882,1.3859,1.3852,1.3843,1.3846,1.3837,1.3837,1.3836,1.3834,1.3839,1.3845,1.3845,1.3839,1.3839,1.3839]},{"header":{"parameterUnit":"m.s-1","parameterCategory":1,"la1":30.2991,"la2":30.254,"lo1":-89.0895,"lo2":-89.0444,"dy":0.0017,"dx":0.0017,"nx":28,"ny":28,"refTime":"2025-01-23T03:00:00:Z","depth":0,"parameterNumber":3,"parameterNumberName":"V-component_of_WINDS"},"data":[0,0,0,0,0,0,0,0,0,0,0,0,0,0,0,0,0,0,0,0,0,0,0,0,0,0,0,0,0,0,0,0,0,0,0,0,0,0,0,0,0,0,0,0,0,0,0,0,0,0,0,0,0,0,0,0,0,0,-3.993,-3.9932,0,-4.0109,-4.0111,-4.0113,-4.007,-4.0067,-4.0063,-4.006,-4.024,-4.0248,-4.0256,0,0,0,0,0,0,0,0,0,0,0,0,0,-3.9549,-3.9556,-3.993,-3.9932,-3.9934,-4.0108,-4.0111,-4.0113,-4.0071,-4.0067,-4.0063,-4.0059,-4.0237,-4.0247,-4.0256,0,0,0,0,0,0,0,0,0,0,0,0,0,-3.9719,-3.9558,-3.9929,-3.9934,-3.9936,-4.0108,-4.0111,-4.0114,-4.0072,-4.0067,-4.0061,-4.0057,-4.0234,-4.0246,-4.0258,-4.0434,0,0,-4.0294,-4.0299,0,0,0,0,0,0,0,0,-3.971,-3.9733,-3.9931,-3.9934,-3.9937,-4.0062,-4.0042,-4.0221,-4.0073,-4.002,-4.006,-4.0054,-4.0185,-4.02,-4.0245,-4.0443,-4.045,-4.0295,-4.0303,-4.0308,-4.0311,0,0,0,0,0,0,0,-3.9698,-3.9726,-4.0,-3.9934,-3.9938,-3.9926,-3.9945,-4.0076,-4.0129,-4.0024,-4.0022,-4.0044,-4.0185,-4.0234,-4.0249,-4.0453,-4.0295,-4.0306,-4.0313,-4.0318,-4.0805,-4.0811,0,0,0,0,0,0,-3.9684,-3.9716,-3.9995,-4.0006,-3.9809,-3.9937,-3.9958,-4.0027,-4.0127,-4.0138,-4.0048,-4.0041,-4.0216,-4.0235,-4.0255,-4.047,-4.0308,-4.0319,-4.0326,-4.08,-4.0807,-4.0813,0,0,0,0,0,0,-3.9676,-3.971,-3.9987,-3.986,-3.9895,-3.995,-4.0027,-4.0033,-4.0082,-4.0145,-4.0154,-4.0088,-4.0213,-4.0238,-4.0391,-4.0475,-4.0324,-4.0335,-4.0793,-4.0802,-4.081,-4.0899,0,0,0,0,0,0,-3.9665,-3.9707,-3.9775,-3.9862,-3.9902,-4.0121,-4.0032,-4.004,-4.0103,-4.0096,-4.0185,-4.0195,-4.021,-4.0373,-4.0402,-4.0489,-4.0344,-4.0785,-4.0797,-4.0807,-4.0889,-4.091,-4.0928,0,0,0,0,0,-3.9652,-3.9792,-3.9779,-3.9813,-3.9989,-4.0126,-4.0148,-4.0164,-4.011,-4.0179,-4.022,-4.0192,-4.0461,-4.0389,-4.0422,-4.0513,-4.078,-4.0794,-4.0806,-4.088,-4.0906,-4.0927,0,0,0,0,0,0,-3.9713,-3.9804,-3.979,-3.9963,-4.0037,-4.0119,-4.0206,-4.0191,-4.0281,-4.027,-4.0285,-4.0306,-4.0461,-4.0502,-4.042,-4.069,-4.0613,-4.0633,-4.0658,-4.0683,-4.0702,-4.0689,-4.0354,0,0,0,0,0,-3.9746,-3.9851,-3.9925,-4.007,-4.0108,-4.0151,-4.0211,-4.0217,-4.0294,-4.0325,-4.0377,-4.0452,-4.0553,-4.062,-4.0717,-4.0894,-4.0913,-4.0973,-4.0993,-4.1008,-4.1026,-4.1124,-4.1151,-4.0855,-4.0855,-4.0855,0,0,-3.9817,-3.9879,-3.9945,-4.0084,-4.0142,-4.025,-4.0178,-4.0294,-4.0374,-4.0342,-4.049,-4.0531,-4.0615,-4.0782,-4.0857,-4.082,-4.1112,-4.1025,-4.1037,-4.1046,-4.114,-4.1168,-4.1193,-4.0864,-4.0863,-4.0861,0,0,-4.0,-4.0058,-4.0186,-4.0247,-4.0336,-4.0364,-4.0394,-4.0479,-4.0505,-4.0654,-4.0632,-4.0727,-4.0901,-4.0963,-4.1017,-4.1224,-4.1203,-4.1255,-4.1357,-4.1452,-4.1476,-4.1496,-4.1572,-4.1598,-4.1272,-4.1273,-4.1273,0,-4.0076,-4.0239,-4.0254,-4.0374,-4.0436,-4.0413,-4.0543,-4.06,-4.0716,-4.0759,-4.0716,-4.0935,-4.099,-4.1171,-4.1222,-4.1266,-4.1301,-4.1246,-4.1471,-4.1492,-4.1512,-4.1584,-4.1612,-4.1278,-4.1278,-4.1277,-4.1277,0,-4.0329,-4.0442,-4.0534,-4.0649,-4.0721,-4.0845,-4.0878,-4.0949,-4.0949,-4.098,-4.1132,-4.1197,-4.1308,-4.135,-4.135,-4.1532,-4.1506,-4.1467,-4.139,-4.1546,-4.1614,-4.1641,-4.1287,-4.1285,-4.1283,-4.1282,0,0,-4.0556,-4.0678,-4.0712,-4.0764,-4.0861,-4.0949,-4.1071,-4.118,-4.1241,-4.1322,-4.1425,-4.1574,-4.1539,-4.16,-4.1607,-4.169,-4.1852,-4.1641,-4.1643,-4.1679,-4.2057,-4.2086,-4.2118,-4.1838,-4.1843,-4.1847,-4.205,0,-4.075,-4.0968,-4.0985,-4.1181,-4.1286,-4.1265,-4.1372,-4.1443,-4.1476,-4.1569,-4.1604,-4.171,-4.1655,-4.1692,-4.1774,-4.1815,-4.1928,-4.18,-4.1934,-4.1939,-4.1915,-4.2153,-4.2185,-4.2373,-4.2076,-4.2081,-4.2084,0,-4.1005,-4.1095,-4.1302,-4.1386,-4.143,-4.1526,-4.1628,-4.1717,-4.1797,-4.1815,-4.1884,-4.188,-4.2005,-4.1923,-4.2096,-4.2009,-4.2064,-4.2093,-4.21,-4.2114,-4.2022,-4.2175,-4.2434,-4.2463,-4.2126,-4.2122,-4.2119,0,-4.1152,-4.1324,-4.1471,-4.1516,-4.1617,-4.1685,-4.173,-4.1805,-4.187,-4.1958,-4.2,-4.2101,-4.2157,-4.2235,-4.2257,-4.2195,-4.2431,-4.235,-4.2449,-4.2449,-4.2501,-4.2497,-4.2773,-4.2534,-4.2534,-4.2533,-4.2533,0,-4.1367,-4.1495,-4.1539,-4.1629,-4.1772,-4.1789,-4.1929,-4.197,-4.2037,-4.2134,-4.2122,-4.2213,-4.2237,-4.2333,-4.2351,-4.2492,-4.2517,-4.2535,-4.2538,-4.2537,-4.2535,-4.2575,-4.2563,-4.2541,-4.2539,-4.2538,-4.2536,0,-4.1556,-4.159,-4.1749,-4.1832,-4.1855,-4.1957,-4.2027,-4.2114,-4.2145,-4.2268,-4.2298,-4.2347,-4.2459,-4.2489,-4.2622,-4.2635,-4.2802,-4.2792,-4.2775,-4.2776,-4.2874,-4.2865,-4.3186,-4.323,-4.2961,-4.2963,-4.2965,0,-4.1691,-4.179,-4.1883,-4.1948,-4.1997,-4.2101,-4.2168,-4.2188,-4.2258,-4.2357,-4.2432,-4.2542,-4.2632,-4.2812,-4.2859,-4.2961,-4.2954,-4.306,-4.297,-4.2966,-4.2958,-4.2952,-4.2963,-4.3077,-4.308,-4.3083,-4.3084,0,-4.1929,-4.1942,-4.2038,-4.2142,-4.2222,-4.2304,-4.2383,-4.2436,-4.2468,-4.2547,-4.2662,-4.2732,-4.2869,-4.2979,-4.3083,-4.3127,-4.3112,-4.3112,-4.3141,-4.3141,-4.3128,-4.3138,-4.2824,-4.3105,-4.3103,-4.3102,-4.31,-4.31,-4.2097,-4.2184,-4.2264,-4.2372,-4.2433,-4.2507,-4.2594,-4.2636,-4.2733,-4.2847,-4.2853,-4.2978,-4.3055,-4.3193,-4.3244,-4.3342,-4.331,-4.3351,-4.3362,-4.3372,-4.3381,-4.3112,-4.336,-4.336,-4.3359,-4.3359,-4.3358,0,-4.2335,-4.2386,-4.2485,-4.2597,-4.2682,-4.266,-4.2746,-4.2819,-4.293,-4.3004,-4.3093,-4.3226,-4.3333,-4.3388,-4.3494,-4.3562,-4.3557,-4.3589,-4.3585,-4.3596,-4.3403,-4.3368,-4.3591,-4.3591,-4.3591,-4.3591,-4.3591,-4.3591,-4.2469,-4.2616,-4.2638,-4.2814,-4.2863,-4.2987,-4.3038,-4.3106,-4.3166,-4.3315,-4.3404,-4.344,-4.3507,-4.3618,-4.3715,-4.3728,-4.3768,-4.3804,-4.3814,-4.3633,-4.3609,-4.3587,-4.3554,-4.3812,-4.3813,-4.3999,-4.4001,-4.4002]}]]